Location: Misciano
(43.5000°N, 11.9500°E)
Time: 23:43:44
(UTC+00:00)

SL-4 R/B - Pass Details

Date: 13 August 2020
Orbit: 428 x 665 km, 51.6° (Epoch: 23 September)

Event Time Altitude Azimuth Distance (km) Brightness Sun altitude
Rises 20:10:32 0° 277° (W) 2,687 6.4 -18.2°
Reaches altitude 10° 20:13:06 10° 290° (WNW) 1,749 5.6 -18.6°
Maximum altitude 20:16:27 26° 348° (NNW) 1,001 3.9 -19.0°
Drops below altitude 10° 20:19:38 10° 47° (NE) 1,640 4.4 -19.4°
Enters shadow 20:20:18 - 53° (NE) 1,873 4.6 -19.5°
